| time (UTC) | temp F | wind direction | speed knots | gust knots | rain 1hr in | rain 24hr in | rain mn in | humidity % | barometer mb |
| 20260505140644 | 69 | 250 | 0.0 | 0.0 | 0.00 | 0.00 | 0.00 | 63 | 1004.6 |
| 20260505140156 | 69 | 250 | 0.0 | 0.9 | 0.00 | 0.00 | 0.00 | 61 | 1004.6 |
| 20260505130154 | 69 | 252 | 0.0 | 1.7 | 0.00 | 0.00 | 0.00 | 65 | 1005.2 |
| 20260505124641 | 67 | 252 | 0.0 | 1.7 | 0.00 | 0.00 | 0.00 | 66 | 1005.4 |
| 20260505124152 | 67 | 252 | 0.0 | 1.7 | 0.00 | 0.00 | 0.00 | 68 | 1005.3 |
| 20260505123641 | 67 | 252 | 0.0 | 0.9 | 0.00 | 0.00 | 0.00 | 68 | 1005.4 |
| 20260505123154 | 67 | 252 | 0.0 | 0.9 | 0.00 | 0.00 | 0.00 | 68 | 1005.5 |
| 20260505122643 | 67 | 252 | 0.0 | 0.0 | 0.00 | 0.00 | 0.00 | 69 | 1005.6 |
| 20260505122154 | 66 | 252 | 0.0 | 0.0 | 0.00 | 0.00 | 0.00 | 68 | 1005.6 |
| 20260505121645 | 66 | 252 | 0.0 | 0.9 | 0.00 | 0.00 | 0.00 | 68 | 1005.7 |
| 20260505121156 | 66 | 252 | 0.0 | 1.7 | 0.00 | 0.00 | 0.00 | 66 | 1005.7 |
| 20260505120645 | 67 | 252 | 0.0 | 2.6 | 0.00 | 0.00 | 0.00 | 66 | 1005.8 |
| 20260505120155 | 67 | 252 | 0.0 | 2.6 | 0.00 | 0.00 | 0.00 | 67 | 1005.9 |
| 20260505115643 | 67 | 253 | 0.0 | 1.7 | 0.00 | 0.00 | 0.00 | 66 | 1005.9 |
| 20260505115156 | 67 | 253 | 0.0 | 0.9 | 0.00 | 0.00 | 0.00 | 66 | 1005.9 |
| 20260505114644 | 67 | 253 | 0.0 | 0.0 | 0.00 | 0.00 | 0.00 | 67 | 1006.0 |
| 20260505114157 | 67 | 253 | 0.0 | 1.7 | 0.00 | 0.00 | 0.00 | 65 | 1005.9 |
| 20260505113645 | 67 | 253 | 0.0 | 1.7 | 0.00 | 0.00 | 0.00 | 65 | 1006.1 |
| 20260505113154 | 67 | 253 | 0.0 | 1.7 | 0.00 | 0.00 | 0.00 | 67 | 1006.1 |
| 20260505112646 | 67 | 253 | 0.0 | 1.7 | 0.00 | 0.00 | 0.00 | 64 | 1006.1 |
| 20260505112158 | 68 | 253 | 0.0 | 0.9 | 0.00 | 0.00 | 0.00 | 64 | 1006.2 |
| 20260505111648 | 68 | 253 | 0.0 | 0.9 | 0.00 | 0.00 | 0.00 | 65 | 1006.2 |
| 20260505111156 | 68 | 253 | 0.0 | 0.9 | 0.00 | 0.00 | 0.00 | 66 | 1006.3 |
| 20260505110646 | 68 | 253 | 0.0 | 0.9 | 0.00 | 0.00 | 0.00 | 67 | 1006.3 |
| 20260505110158 | 68 | 253 | 0.0 | 0.9 | 0.00 | 0.00 | 0.00 | 64 | 1006.3 |
| 20260505102156 | 67 | 253 | 0.0 | 1.7 | 0.00 | 0.00 | 0.00 | 73 | 1006.6 |
| 20260505101645 | 66 | 254 | 0.0 | 1.7 | 0.00 | 0.00 | 0.00 | 75 | 1006.6 |
| 20260505101156 | 66 | 251 | 0.0 | 0.0 | 0.00 | 0.00 | 0.00 | 73 | 1006.7 |
| 20260505100647 | 65 | 251 | 0.0 | 0.9 | 0.00 | 0.00 | 0.00 | 72 | 1006.7 |
| 20260505100156 | 66 | 251 | 0.0 | 0.9 | 0.00 | 0.00 | 0.00 | 74 | 1006.7 |
| 20260505095640 | 66 | 251 | 0.0 | 0.9 | 0.00 | 0.00 | 0.00 | 76 | 1006.7 |
| 20260505095150 | 66 | 251 | 0.0 | 0.9 | 0.00 | 0.00 | 0.00 | 78 | 1006.7 |
| 20260505094644 | 66 | 246 | 0.0 | 0.9 | 0.00 | 0.00 | 0.00 | 77 | 1006.8 |
| 20260505094158 | 66 | 246 | 0.0 | 0.9 | 0.00 | 0.00 | 0.00 | 78 | 1006.7 |
| 20260505093647 | 66 | 246 | 0.0 | 0.9 | 0.00 | 0.00 | 0.00 | 81 | 1006.8 |
| 20260505093156 | 66 | 246 | 0.0 | 0.9 | 0.00 | 0.00 | 0.00 | 82 | 1006.8 |
| 20260505092646 | 66 | 246 | 0.0 | 0.9 | 0.00 | 0.00 | 0.00 | 83 | 1006.9 |
| 20260505092159 | 65 | 246 | 0.0 | 0.9 | 0.00 | 0.00 | 0.00 | 83 | 1006.9 |
| 20260505091647 | 65 | 246 | 0.0 | 0.9 | 0.00 | 0.00 | 0.00 | 83 | 1006.9 |
| 20260505091158 | 64 | 246 | 0.0 | 0.9 | 0.00 | 0.00 | 0.00 | 83 | 1007.0 |
| 20260505090646 | 65 | 246 | 0.0 | 1.7 | 0.00 | 0.00 | 0.00 | 85 | 1007.1 |
| 20260505090200 | 65 | 246 | 0.0 | 0.9 | 0.00 | 0.00 | 0.00 | 86 | 1007.2 |
| 20260505085641 | 64 | 246 | 0.0 | 0.9 | 0.00 | 0.00 | 0.00 | 88 | 1007.2 |
| 20260505085153 | 64 | 246 | 0.0 | 0.9 | 0.00 | 0.00 | 0.00 | 89 | 1007.2 |
| 20260505084641 | 63 | 246 | 0.0 | 0.9 | 0.00 | 0.00 | 0.00 | 90 | 1007.3 |
| 20260505084152 | 63 | 246 | 0.0 | 0.0 | 0.00 | 0.00 | 0.00 | 90 | 1007.3 |
| 20260505083642 | 63 | 246 | 0.0 | 0.0 | 0.00 | 0.00 | 0.00 | 91 | 1007.3 |
| 20260505083151 | 62 | 246 | 0.0 | 0.9 | 0.00 | 0.00 | 0.00 | 91 | 1007.3 |
| 20260505082641 | 61 | 246 | 0.0 | 0.9 | 0.00 | 0.00 | 0.00 | 91 | 1007.4 |
| 20260505082152 | 61 | 246 | 0.0 | 0.0 | 0.00 | 0.00 | 0.00 | 91 | 1007.5 |
| 20260505081644 | 60 | 246 | 0.0 | 1.7 | 0.00 | 0.00 | 0.00 | 92 | 1007.5 |
| 20260505080642 | 60 | 246 | 0.0 | 0.9 | 0.00 | 0.00 | 0.00 | 92 | 1007.5 |
| 20260505080152 | 60 | 246 | 0.0 | 0.9 | 0.00 | 0.00 | 0.00 | 92 | 1007.5 |
| 20260505075657 | 59 | 246 | 0.0 | 1.7 | 0.00 | 0.00 | 0.00 | 92 | 1007.6 |
| 20260505075147 | 59 | 246 | 0.0 | 1.7 | 0.00 | 0.00 | 0.00 | 93 | 1007.6 |
| 20260505074638 | 58 | 246 | 0.0 | 3.5 | 0.00 | 0.00 | 0.00 | 93 | 1007.7 |
| 20260505074152 | 58 | 246 | 0.0 | 3.5 | 0.00 | 0.00 | 0.00 | 93 | 1007.8 |
| 20260505073642 | 58 | 245 | 0.0 | 0.9 | 0.00 | 0.00 | 0.00 | 93 | 1007.8 |
| 20260505073154 | 58 | 243 | 0.0 | 0.9 | 0.00 | 0.00 | 0.00 | 93 | 1007.9 |
| 20260505072646 | 57 | 243 | 0.0 | 0.9 | 0.00 | 0.00 | 0.00 | 93 | 1007.9 |
| 20260505072155 | 57 | 243 | 0.0 | 0.9 | 0.00 | 0.00 | 0.00 | 93 | 1007.9 |
| 20260505071646 | 57 | 243 | 0.0 | 0.9 | 0.00 | 0.00 | 0.00 | 93 | 1008.0 |
| 20260505071157 | 57 | 243 | 0.0 | 1.7 | 0.00 | 0.00 | 0.00 | 93 | 1008.0 |
| 20260505070648 | 57 | 243 | 0.0 | 1.7 | 0.00 | 0.00 | 0.00 | 93 | 1008.0 |
| 20260505070201 | 57 | 243 | 0.0 | 2.6 | 0.00 | 0.00 | 0.00 | 93 | 1008.0 |
| 20260505065643 | 57 | 243 | 0.0 | 2.6 | 0.00 | 0.00 | 0.00 | 93 | 1008.1 |
| 20260505065155 | 57 | 243 | 0.0 | 0.9 | 0.00 | 0.00 | 0.00 | 93 | 1008.1 |
| 20260505064644 | 56 | 243 | 0.0 | 0.0 | 0.00 | 0.00 | 0.00 | 93 | 1008.0 |
| 20260505064155 | 56 | 243 | 0.0 | 0.0 | 0.00 | 0.00 | 0.00 | 93 | 1008.0 |
| 20260505063646 | 56 | 243 | 0.0 | 0.9 | 0.00 | 0.00 | 0.00 | 93 | 1008.0 |
| 20260505063157 | 56 | 243 | 0.0 | 0.9 | 0.00 | 0.00 | 0.00 | 93 | 1008.1 |
| 20260505062647 | 56 | 243 | 0.0 | 0.0 | 0.00 | 0.00 | 0.00 | 93 | 1008.1 |
| 20260505062158 | 56 | 243 | 0.0 | 0.0 | 0.00 | 0.00 | 0.00 | 93 | 1008.1 |
| 20260505061647 | 56 | 243 | 0.0 | 0.0 | 0.00 | 0.00 | 0.00 | 93 | 1008.1 |
| 20260505061157 | 56 | 243 | 0.0 | 0.0 | 0.00 | 0.00 | 0.00 | 93 | 1008.1 |
| 20260505060501 | 56 | 243 | 0.0 | 0.0 | 0.00 | 0.00 | 0.00 | 93 | 1008.1 |
| 20260505060203 | 56 | 243 | 0.0 | 0.0 | 0.00 | 0.00 | 0.00 | 93 | 1008.1 |
| 20260505055644 | 55 | 243 | 0.0 | 0.0 | 0.00 | 0.00 | 0.00 | 93 | 1008.2 |
| 20260505055155 | 55 | 243 | 0.0 | 0.0 | 0.00 | 0.00 | 0.00 | 93 | 1008.2 |
| 20260505054644 | 55 | 243 | 0.0 | 0.9 | 0.00 | 0.00 | 0.00 | 93 | 1008.3 |
| 20260505054155 | 55 | 243 | 0.0 | 0.9 | 0.00 | 0.00 | 0.00 | 93 | 1008.2 |
| 20260505053645 | 55 | 243 | 0.0 | 1.7 | 0.00 | 0.00 | 0.00 | 93 | 1008.1 |
| 20260505053156 | 55 | 243 | 0.0 | 1.7 | 0.00 | 0.00 | 0.00 | 93 | 1008.1 |
| 20260505052649 | 55 | 243 | 0.0 | 0.0 | 0.00 | 0.00 | 0.00 | 93 | 1008.1 |
| 20260505052158 | 55 | 243 | 0.0 | 0.0 | 0.00 | 0.00 | 0.00 | 93 | 1008.1 |
| 20260505051647 | 55 | 243 | 0.0 | 0.0 | 0.00 | 0.00 | 0.00 | 93 | 1008.0 |
| 20260505051141 | 55 | 243 | 0.0 | 0.0 | 0.00 | 0.00 | 0.00 | 93 | 1008.2 |
| 20260505050649 | 55 | 243 | 0.0 | 0.9 | 0.00 | 0.00 | 0.00 | 93 | 1008.1 |
| 20260505050158 | 55 | 243 | 0.0 | 0.0 | 0.00 | 0.00 | 0.00 | 93 | 1008.1 |
| 20260505041644 | 54 | 243 | 0.0 | 0.0 | 0.00 | 0.00 | 0.00 | 93 | 1008.3 |
| 20260505041154 | 54 | 243 | 0.0 | 0.0 | 0.00 | 0.00 | 0.00 | 93 | 1008.3 |
| 20260505040648 | 54 | 243 | 0.0 | 0.0 | 0.00 | 0.00 | 0.00 | 93 | 1008.3 |
| 20260505040154 | 54 | 243 | 0.0 | 1.7 | 0.00 | 0.00 | 0.00 | 93 | 1008.4 |
| 20260505035638 | 54 | 243 | 0.0 | 1.7 | 0.00 | 0.00 | 0.00 | 93 | 1008.4 |
| 20260505035148 | 54 | 243 | 0.0 | 0.0 | 0.00 | 0.00 | 0.00 | 93 | 1008.4 |
| 20260505034640 | 54 | 243 | 0.0 | 0.9 | 0.00 | 0.00 | 0.00 | 92 | 1008.5 |
| 20260505034149 | 54 | 243 | 0.0 | 0.0 | 0.00 | 0.00 | 0.00 | 92 | 1008.4 |
| 20260505033640 | 55 | 243 | 0.0 | 0.0 | 0.00 | 0.00 | 0.00 | 92 | 1008.4 |
| 20260505033151 | 54 | 243 | 0.0 | 0.0 | 0.00 | 0.00 | 0.00 | 92 | 1008.4 |
| 20260505032641 | 55 | 243 | 0.0 | 0.0 | 0.00 | 0.00 | 0.00 | 92 | 1008.4 |
| 20260505032153 | 55 | 243 | 0.0 | 0.0 | 0.00 | 0.00 | 0.00 | 92 | 1008.4 |
| 20260505031645 | 55 | 243 | 0.0 | 0.0 | 0.00 | 0.00 | 0.00 | 92 | 1008.5 |
| 20260505031155 | 55 | 243 | 0.0 | 0.0 | 0.00 | 0.00 | 0.00 | 92 | 1008.6 |
| 20260505030507 | 55 | 243 | 0.0 | 0.0 | 0.00 | 0.00 | 0.00 | 92 | 1008.7 |
| 20260505030157 | 55 | 243 | 0.0 | 0.0 | 0.00 | 0.00 | 0.00 | 92 | 1008.8 |
| 20260505025659 | 55 | 243 | 0.0 | 0.0 | 0.00 | 0.00 | 0.00 | 92 | 1008.9 |
| 20260505025150 | 55 | 243 | 0.0 | 0.0 | 0.00 | 0.00 | 0.00 | 92 | 1008.9 |
| 20260505024641 | 55 | 243 | 0.0 | 0.0 | 0.00 | 0.00 | 0.00 | 92 | 1009.0 |
| 20260505024149 | 55 | 243 | 0.0 | 0.0 | 0.00 | 0.00 | 0.00 | 92 | 1008.9 |
| 20260505023641 | 55 | 243 | 0.0 | 0.0 | 0.00 | 0.00 | 0.00 | 92 | 1008.9 |
| 20260505023150 | 55 | 243 | 0.0 | 0.0 | 0.00 | 0.00 | 0.00 | 92 | 1009.0 |
| 20260505022641 | 55 | 243 | 0.0 | 0.0 | 0.00 | 0.00 | 0.00 | 92 | 1009.0 |
| 20260505022152 | 55 | 243 | 0.0 | 0.0 | 0.00 | 0.00 | 0.00 | 92 | 1009.2 |
| 20260505021644 | 55 | 243 | 0.0 | 0.0 | 0.00 | 0.00 | 0.00 | 92 | 1009.3 |
| 20260505021153 | 55 | 243 | 0.0 | 0.0 | 0.00 | 0.00 | 0.00 | 92 | 1009.3 |
| 20260505020644 | 55 | 243 | 0.0 | 0.9 | 0.00 | 0.00 | 0.00 | 92 | 1009.4 |
| 20260505020152 | 55 | 243 | 0.0 | 0.9 | 0.00 | 0.00 | 0.00 | 92 | 1009.4 |
| 20260505015659 | 55 | 243 | 0.0 | 0.0 | 0.00 | 0.00 | 0.00 | 92 | 1009.4 |
| 20260505015147 | 55 | 243 | 0.0 | 0.9 | 0.00 | 0.00 | 0.00 | 92 | 1009.3 |
| 20260505014657 | 55 | 243 | 0.0 | 0.0 | 0.00 | 0.00 | 0.00 | 92 | 1009.4 |
| 20260505014149 | 55 | 243 | 0.0 | 0.9 | 0.00 | 0.00 | 0.00 | 92 | 1009.3 |
| 20260505013639 | 55 | 243 | 0.0 | 0.9 | 0.00 | 0.00 | 0.00 | 92 | 1009.4 |
| 20260505013151 | 55 | 243 | 0.0 | 0.9 | 0.00 | 0.00 | 0.00 | 92 | 1009.3 |
| 20260505012643 | 55 | 243 | 0.0 | 0.0 | 0.00 | 0.00 | 0.00 | 91 | 1009.3 |
| 20260505012149 | 55 | 243 | 0.0 | 0.0 | 0.00 | 0.00 | 0.00 | 91 | 1009.4 |
| 20260505011641 | 55 | 243 | 0.0 | 0.0 | 0.00 | 0.00 | 0.00 | 91 | 1009.4 |
| 20260505011151 | 55 | 243 | 0.0 | 0.0 | 0.00 | 0.00 | 0.00 | 91 | 1009.4 |
| 20260505010645 | 55 | 243 | 0.0 | 0.0 | 0.00 | 0.00 | 0.00 | 91 | 1009.5 |
| 20260505010155 | 55 | 243 | 0.0 | 0.0 | 0.00 | 0.00 | 0.00 | 91 | 1009.6 |
| 20260505005641 | 55 | 243 | 0.0 | 0.0 | 0.00 | 0.00 | 0.00 | 91 | 1009.5 |
| 20260505005152 | 55 | 243 | 0.0 | 0.0 | 0.00 | 0.00 | 0.00 | 91 | 1009.6 |
| 20260505004641 | 55 | 243 | 0.0 | 0.0 | 0.00 | 0.00 | 0.00 | 91 | 1009.7 |
| 20260505004153 | 56 | 243 | 0.0 | 0.0 | 0.00 | 0.00 | 0.00 | 91 | 1009.8 |
| 20260505003642 | 56 | 243 | 0.0 | 0.0 | 0.00 | 0.00 | 0.00 | 91 | 1009.8 |
| 20260505003154 | 56 | 243 | 0.0 | 0.0 | 0.00 | 0.00 | 0.00 | 91 | 1009.9 |
| 20260505002644 | 56 | 243 | 0.0 | 0.0 | 0.00 | 0.00 | 0.00 | 91 | 1009.9 |
| 20260505002157 | 56 | 243 | 0.0 | 1.7 | 0.00 | 0.00 | 0.00 | 91 | 1010.0 |
| 20260505001647 | 56 | 243 | 0.0 | 1.7 | 0.00 | 0.00 | 0.00 | 91 | 1010.0 |
| 20260505001156 | 56 | 243 | 0.0 | 0.0 | 0.00 | 0.00 | 0.00 | 91 | 1010.1 |
| 20260505000647 | 56 | 243 | 0.0 | 0.0 | 0.00 | 0.00 | 0.00 | 91 | 1010.1 |
| 20260505000156 | 56 | 243 | 0.0 | 0.0 | 0.00 | 0.00 | 0.00 | 91 | 1010.1 |
| 20260504235641 | 56 | 243 | 0.0 | 0.0 | 0.00 | 0.00 | 0.00 | 90 | 1010.1 |
| 20260504235153 | 56 | 243 | 0.0 | 0.0 | 0.00 | 0.00 | 0.00 | 90 | 1010.2 |
| 20260504234642 | 56 | 243 | 0.0 | 0.0 | 0.00 | 0.00 | 0.00 | 90 | 1010.2 |
| 20260504234154 | 56 | 243 | 0.0 | 0.0 | 0.00 | 0.00 | 0.00 | 90 | 1010.2 |
| 20260504233643 | 56 | 243 | 0.0 | 0.0 | 0.00 | 0.00 | 0.00 | 90 | 1010.3 |
| 20260504233155 | 56 | 243 | 0.0 | 0.0 | 0.00 | 0.00 | 0.00 | 90 | 1010.3 |
| 20260504232645 | 56 | 243 | 0.0 | 0.0 | 0.00 | 0.00 | 0.00 | 90 | 1010.6 |
| 20260504232157 | 56 | 243 | 0.0 | 0.0 | 0.00 | 0.00 | 0.00 | 90 | 1010.7 |
| 20260504231645 | 56 | 243 | 0.0 | 0.0 | 0.00 | 0.00 | 0.00 | 90 | 1010.8 |
| 20260504231158 | 57 | 243 | 0.0 | 0.0 | 0.00 | 0.00 | 0.00 | 90 | 1010.8 |
| 20260504230649 | 57 | 243 | 0.0 | 0.0 | 0.00 | 0.00 | 0.00 | 90 | 1010.9 |
| 20260504230156 | 57 | 243 | 0.0 | 0.0 | 0.00 | 0.00 | 0.00 | 90 | 1010.9 |
| 20260504225643 | 57 | 243 | 0.0 | 0.0 | 0.00 | 0.00 | 0.00 | 90 | 1011.2 |
| 20260504225153 | 57 | 243 | 0.0 | 0.0 | 0.00 | 0.00 | 0.00 | 90 | 1011.3 |
| 20260504224646 | 57 | 243 | 0.0 | 0.0 | 0.00 | 0.00 | 0.00 | 89 | 1011.3 |
| 20260504224156 | 57 | 243 | 0.0 | 0.0 | 0.00 | 0.00 | 0.00 | 89 | 1011.4 |
| 20260504223646 | 57 | 243 | 0.0 | 0.0 | 0.00 | 0.00 | 0.00 | 89 | 1011.5 |
| 20260504223157 | 57 | 243 | 0.0 | 1.7 | 0.00 | 0.00 | 0.00 | 89 | 1011.4 |
| 20260504222646 | 58 | 243 | 0.0 | 1.7 | 0.00 | 0.00 | 0.00 | 89 | 1011.4 |
| 20260504222156 | 57 | 243 | 0.0 | 1.7 | 0.00 | 0.00 | 0.00 | 89 | 1011.3 |
| 20260504221646 | 57 | 243 | 0.0 | 0.0 | 0.00 | 0.00 | 0.00 | 89 | 1011.2 |
| 20260504221157 | 57 | 243 | 0.0 | 0.0 | 0.00 | 0.00 | 0.00 | 89 | 1011.2 |
| 20260504220503 | 57 | 243 | 0.0 | 0.0 | 0.00 | 0.00 | 0.00 | 88 | 1011.2 |
| 20260504215645 | 57 | 243 | 0.0 | 0.0 | 0.00 | 0.00 | 0.00 | 88 | 1011.3 |
| 20260504215155 | 57 | 243 | 0.0 | 0.0 | 0.00 | 0.00 | 0.00 | 88 | 1011.3 |
| 20260504214645 | 57 | 243 | 0.0 | 0.0 | 0.00 | 0.00 | 0.00 | 88 | 1011.3 |
| 20260504214157 | 57 | 243 | 0.0 | 0.0 | 0.00 | 0.00 | 0.00 | 88 | 1011.3 |
| 20260504213645 | 58 | 243 | 0.0 | 0.0 | 0.00 | 0.00 | 0.00 | 88 | 1011.3 |
| 20260504213158 | 58 | 243 | 0.0 | 0.0 | 0.00 | 0.00 | 0.00 | 88 | 1011.4 |
| 20260504212649 | 58 | 243 | 0.0 | 0.0 | 0.00 | 0.00 | 0.00 | 88 | 1011.4 |
| 20260504212158 | 58 | 243 | 0.0 | 0.0 | 0.00 | 0.00 | 0.00 | 87 | 1011.4 |
| 20260504211649 | 58 | 243 | 0.0 | 0.0 | 0.00 | 0.00 | 0.00 | 87 | 1011.4 |
| 20260504211159 | 58 | 243 | 0.0 | 0.0 | 0.00 | 0.00 | 0.00 | 87 | 1011.3 |
| 20260504210649 | 58 | 243 | 0.0 | 0.9 | 0.00 | 0.00 | 0.00 | 87 | 1011.4 |
| 20260504210200 | 58 | 243 | 0.0 | 0.9 | 0.00 | 0.00 | 0.00 | 87 | 1011.4 |
| 20260504205644 | 58 | 243 | 0.0 | 0.0 | 0.00 | 0.00 | 0.00 | 87 | 1011.5 |
| 20260504205156 | 58 | 243 | 0.0 | 0.0 | 0.00 | 0.00 | 0.00 | 87 | 1011.4 |
| 20260504204644 | 58 | 243 | 0.0 | 0.0 | 0.00 | 0.00 | 0.00 | 87 | 1011.4 |
| 20260504204155 | 58 | 243 | 0.0 | 0.0 | 0.00 | 0.00 | 0.00 | 87 | 1011.3 |
| 20260504203646 | 58 | 243 | 0.0 | 0.0 | 0.00 | 0.00 | 0.00 | 87 | 1011.3 |
| 20260504203158 | 58 | 243 | 0.0 | 0.0 | 0.00 | 0.00 | 0.00 | 87 | 1011.4 |
| 20260504202651 | 58 | 243 | 0.0 | 0.0 | 0.00 | 0.00 | 0.00 | 86 | 1011.4 |
| 20260504202139 | 58 | 243 | 0.0 | 0.0 | 0.00 | 0.00 | 0.00 | 86 | 1011.4 |
| 20260504201649 | 58 | 243 | 0.0 | 0.0 | 0.00 | 0.00 | 0.00 | 86 | 1011.3 |
| 20260504201144 | 58 | 243 | 0.0 | 0.0 | 0.00 | 0.00 | 0.00 | 86 | 1011.3 |
| 20260504200506 | 58 | 243 | 0.0 | 0.0 | 0.00 | 0.00 | 0.00 | 86 | 1011.3 |
| 20260504195648 | 59 | 243 | 0.0 | 0.0 | 0.00 | 0.00 | 0.00 | 86 | 1011.2 |
| 20260504195200 | 59 | 243 | 0.0 | 0.0 | 0.00 | 0.00 | 0.00 | 85 | 1011.0 |
| 20260504194649 | 59 | 243 | 0.0 | 0.9 | 0.00 | 0.00 | 0.00 | 85 | 1011.1 |
| 20260504194159 | 59 | 243 | 0.0 | 0.9 | 0.00 | 0.00 | 0.00 | 85 | 1011.1 |
| 20260504193650 | 59 | 243 | 0.0 | 0.9 | 0.00 | 0.00 | 0.00 | 85 | 1011.1 |
| 20260504193201 | 59 | 243 | 0.0 | 4.3 | 0.00 | 0.00 | 0.00 | 85 | 1011.0 |
| 20260504192651 | 59 | 243 | 0.0 | 4.3 | 0.00 | 0.00 | 0.00 | 84 | 1011.1 |
| 20260504192141 | 59 | 281 | 0.0 | 1.7 | 0.00 | 0.00 | 0.00 | 84 | 1011.0 |
| 20260504191652 | 59 | 281 | 0.0 | 0.0 | 0.00 | 0.00 | 0.00 | 83 | 1011.0 |
| 20260504191146 | 59 | 281 | 0.0 | 0.0 | 0.00 | 0.00 | 0.00 | 83 | 1011.0 |
| 20260504190504 | 59 | 281 | 0.0 | 0.0 | 0.00 | 0.00 | 0.00 | 83 | 1011.0 |
| 20260504185647 | 59 | 281 | 0.0 | 0.9 | 0.00 | 0.00 | 0.00 | 83 | 1011.1 |
| 20260504185158 | 59 | 281 | 0.0 | 0.0 | 0.00 | 0.00 | 0.00 | 82 | 1010.9 |
| 20260504184648 | 60 | 281 | 0.0 | 0.0 | 0.00 | 0.00 | 0.00 | 82 | 1010.7 |
| 20260504184159 | 60 | 281 | 0.0 | 0.0 | 0.00 | 0.00 | 0.00 | 81 | 1010.7 |
| 20260504183647 | 60 | 281 | 0.0 | 0.0 | 0.00 | 0.00 | 0.00 | 81 | 1010.6 |
| 20260504183139 | 60 | 281 | 0.0 | 0.0 | 0.00 | 0.00 | 0.00 | 81 | 1010.6 |
| 20260504182650 | 60 | 281 | 0.0 | 0.0 | 0.00 | 0.00 | 0.00 | 81 | 1010.7 |
| 20260504182141 | 60 | 281 | 0.0 | 0.0 | 0.00 | 0.00 | 0.00 | 80 | 1010.7 |
| 20260504181651 | 60 | 281 | 0.0 | 0.0 | 0.00 | 0.00 | 0.00 | 80 | 1010.7 |
| 20260504181142 | 60 | 281 | 0.0 | 0.0 | 0.00 | 0.00 | 0.00 | 80 | 1010.7 |
| 20260504180653 | 61 | 281 | 0.0 | 0.0 | 0.00 | 0.00 | 0.00 | 80 | 1010.7 |
| 20260504180149 | 61 | 281 | 0.0 | 0.0 | 0.00 | 0.00 | 0.00 | 79 | 1010.7 |
| 20260504175652 | 61 | 281 | 0.0 | 0.0 | 0.00 | 0.00 | 0.00 | 79 | 1010.7 |
| 20260504175144 | 61 | 281 | 0.0 | 0.0 | 0.00 | 0.00 | 0.00 | 79 | 1010.7 |
| 20260504174655 | 61 | 281 | 0.0 | 0.9 | 0.00 | 0.00 | 0.00 | 79 | 1010.8 |
| 20260504174145 | 61 | 281 | 0.0 | 1.7 | 0.00 | 0.00 | 0.00 | 78 | 1010.9 |
| 20260504173657 | 61 | 281 | 0.0 | 2.6 | 0.00 | 0.00 | 0.00 | 78 | 1010.9 |
| 20260504173145 | 61 | 281 | 0.0 | 2.6 | 0.00 | 0.00 | 0.00 | 78 | 1010.9 |
| 20260504172656 | 61 | 281 | 0.0 | 0.9 | 0.00 | 0.00 | 0.00 | 78 | 1011.0 |
| 20260504172147 | 61 | 281 | 0.0 | 0.9 | 0.00 | 0.00 | 0.00 | 78 | 1010.9 |
| 20260504171658 | 61 | 281 | 0.0 | 0.9 | 0.00 | 0.00 | 0.00 | 78 | 1010.8 |
| 20260504171149 | 61 | 281 | 0.0 | 0.9 | 0.00 | 0.00 | 0.00 | 78 | 1010.9 |
| 20260504170640 | 61 | 281 | 0.0 | 1.7 | 0.00 | 0.00 | 0.00 | 78 | 1010.8 |
| 20260504170151 | 61 | 281 | 0.0 | 1.7 | 0.00 | 0.00 | 0.00 | 78 | 1010.9 |
| 20260504160148 | 62 | 284 | 0.0 | 1.7 | 0.00 | 0.00 | 0.00 | 80 | 1011.0 |
| 20260504151149 | 63 | 220 | 0.0 | 2.6 | 0.00 | 0.00 | 0.00 | 79 | 1011.0 |
| 20260504150641 | 63 | 220 | 0.0 | 2.6 | 0.00 | 0.00 | 0.00 | 77 | 1011.0 |
| 20260504150152 | 64 | 241 | 0.0 | 4.3 | 0.00 | 0.00 | 0.00 | 76 | 1011.0 |